Regional Weather Roundup
Issued by NWS

Home | Current Version | Previous Version | Graphics & Text | Print | Product List | Glossary On
Versions: 1 2 3 4 5 6 7 8 9 10 11 12 13 14 15 16 17 18 19 20 21 22 23 24 25 26 27 28 29 30 31 32 33 34 35 36 37 38 39 40 41 42 43 44 45 46 47 48 49 50
000
ASUS43 KBIS 021802
RWRND

NORTH DAKOTA REGIONAL WEATHER ROUNDUP
NATIONAL WEATHER SERVICE BISMARCK ND
100 PM CDT THU JUL 02 2015

NOTE: "FAIR" INDICATES FEW OR NO CLOUDS BELOW 12,000 FEET WITH NO
SIGNIFICANT WEATHER AND/OR OBSTRUCTIONS TO VISIBILITY.


NDZ001>003-009>011-017-021900-
NORTHWEST NORTH DAKOTA

CITY           SKY/WX    TMP DP  RH WIND       PRES   REMARKS
WILLISTON      MOSUNNY   80  59  48 N9        30.03F HAZE
6HR MIN TEMP:  56; 6HR MAX TEMP:  80;

MINOT          MOSUNNY   74  62  66 VRB7      29.97F HAZE
MINOT AFB      SUNNY     78  68  72 NW8       29.96F HAZE
$$

NDZ018>021-031>035-040>046-021900-
SOUTHWEST NORTH DAKOTA

CITY           SKY/WX    TMP DP  RH WIND       PRES   REMARKS
BISMARCK       PTSUNNY   76  63  64 NW10      29.98F HAZE
6HR MIN TEMP:  62; 6HR MAX TEMP:  77;

DICKINSON      SUNNY     75  59  57 N8        30.04S
GARRISON         N/A     74  64  71 NW8       29.99F
6HR MIN TEMP:  60; 6HR MAX TEMP:  74;

HETTINGER ARPT MOSUNNY   72  58  61 NW12      30.06F
$$

NDZ004>008-012>016-024-026-027-054-021900-
NORTHEAST NORTH DAKOTA

CITY           SKY/WX    TMP DP  RH WIND       PRES   REMARKS
GRAND FORKS    SUNNY     76  62  62 S13G21    29.93F
GRND FRKS AFB  SUNNY     77  63  62 SW10      29.94F
DEVILS LAKE    MOSUNNY   75  61  60 W10       29.94F
$$

NDZ022-023-025-028>030-036>039-047>053-021900-
SOUTHEAST NORTH DAKOTA

CITY           SKY/WX    TMP DP  RH WIND       PRES   REMARKS
FARGO          SUNNY     76  54  46 S13       29.97F
6HR MIN TEMP:  60; 6HR MAX TEMP:  76;

JAMESTOWN      MOSUNNY   75  64  68 S9        29.96F
$$



USA.gov is the U.S. government's official web portal to all federal, state and local government web resources and services.